Location: Landeleau
(48.2273°N, 3.7285°W)
Time: 21:51:06
(UTC+00:00)

STARLINK-1113 - Pass Details

Date: 30 March 2020
Orbit: 549 x 551 km, 53.0° (Epoch: 24 May)

Event Time Altitude Azimuth Distance (km) Brightness Sun altitude
Rises 19:28:55 0° 293° (WNW) 2,724 9.5 -8.3°
Reaches altitude 10° 19:31:11 10° 297° (WNW) 1,828 7.9 -8.7°
Maximum altitude 19:35:18 58° 18° (NNE) 648 4.0 -9.3°
Enters shadow 19:38:52 13° 96° (E) 1,625 5.4 -9.9°
